Weather History for CWZQ - September, 2013

Change the Weather History Date:

Friday, September 13, 2013

  Actual Average Record
Temperature  
Mean Temperature 52 °F -  
Max Temperature 76 °F - - ()
Min Temperature 27 °F - - ()
Degree Days  
Heating Degree Days 14    
Growing Degree Days 2 (Base 50)    
Moisture  
Dew Point 65 °F    
Average Humidity 78    
Maximum Humidity 88    
Minimum Humidity 71    
Precipitation  
Precipitation 0.00 in - - ()
Sea Level Pressure  
Sea Level Pressure 29.75 in    
Wind  
Wind Speed 14 mph ()    
Max Wind Speed 24 mph    
Max Gust Speed 37 mph    
Visibility 10.0 miles    
Events      
T = Trace of Precipitation, MM = Missing Value Source: Averaged Metar Reports

Daily Weather History Graph

Daily Weather History Graph

Search for Another Location

Airport or City:

Trip Planner

Search our weather history database for the weather conditions in past years. The results will help you decide how hot, cold, wet, or windy it might be!

Date:

Astronomy

Sep. 13, 2013 Rise Set
Actual Time 6:39 AM ADT 7:19 PM ADT
Civil Twilight 6:09 AM ADT 7:49 PM ADT
Nautical Twilight 5:33 AM ADT 8:25 PM ADT
Astronomical Twilight 4:55 AM ADT 9:03 PM ADT
Moon 3:20 PM ADT (9/13) No Moon Set
Length of Visible Light 13h 40m
Length of Day
12h 39m
First Quarter, 61% of the Moon is Illuminated
Sep 13
First Quarter
Sep 19
Full
Sep 27
Last Quarter
Oct 4
New
Oct 11
First Quarter

Hourly Weather History & Observations

Time (ADT) Temp. Dew Point Humidity Pressure Visibility Wind Dir Wind Speed Gust Speed Precip Events Conditions
12:00 AM 74.5 °F 66.4 °F 76% 29.78 in - South 12.7 mph - N/A   Unknown
12:20 AM 74.3 °F 66.0 °F 75% - - South 11.5 mph - N/A   Unknown
12:40 AM 73.8 °F 65.7 °F 76% - - South 11.5 mph 19.6 mph N/A   Unknown
1:00 AM 73.8 °F 65.7 °F 76% 29.77 in - South 12.7 mph - N/A   Unknown
1:20 AM 73.4 °F 65.3 °F 76% - - South 11.5 mph 19.6 mph N/A   Unknown
1:40 AM 73.2 °F 65.1 °F 76% - - South 15.0 mph 25.3 mph N/A   Unknown
2:00 AM 72.1 °F 65.1 °F 78% 29.78 in - South 15.0 mph 21.9 mph N/A   Unknown
2:20 AM 72.0 °F 65.1 °F 79% - - South 13.8 mph 19.6 mph N/A   Unknown
2:40 AM 71.6 °F 64.9 °F 79% - - South 12.7 mph - N/A   Unknown
3:00 AM 29 °F 24 °F 75% 29.84 in 10 mi ESE 17.3 mph - -   Overcast
3:00 AM 71.4 °F 63.1 °F 75% 29.78 in - South 15.0 mph 23.0 mph N/A   Unknown
3:20 AM 70.9 °F 61.9 °F 73% - - South 16.1 mph 23.0 mph N/A   Unknown
3:40 AM 70.5 °F 63.0 °F 77% - - South 16.1 mph - N/A   Unknown
4:00 AM 70.9 °F 63.5 °F 77% 29.77 in - South 16.1 mph 24.2 mph N/A   Unknown
4:20 AM 70.3 °F 64.0 °F 80% - - South 12.7 mph 19.6 mph N/A   Unknown
4:40 AM 70.3 °F 64.6 °F 82% - - South 12.7 mph 18.4 mph N/A   Unknown
5:00 AM 70.3 °F 64.9 °F 83% 29.75 in - South 16.1 mph - N/A   Unknown
5:20 AM 70.9 °F 65.3 °F 82% - - South 15.0 mph 25.3 mph N/A   Unknown
5:40 AM 71.2 °F 65.5 °F 82% - - South 15.0 mph 24.2 mph N/A   Unknown
6:00 AM 71.4 °F 65.5 °F 81% 29.75 in - South 17.3 mph 24.2 mph N/A   Unknown
6:20 AM 72.3 °F 65.7 °F 79% - - South 17.3 mph 26.5 mph N/A   Unknown
6:40 AM 72.0 °F 65.7 °F 80% - - South 16.1 mph 25.3 mph N/A   Unknown
7:00 AM 72.9 °F 66.0 °F 79% 29.75 in - South 19.6 mph 25.3 mph N/A   Unknown
7:20 AM 72.7 °F 66.0 °F 80% - - South 16.1 mph 25.3 mph N/A   Unknown
7:40 AM 72.9 °F 66.4 °F 80% - - South 19.6 mph 31.1 mph N/A   Unknown
8:00 AM 73.4 °F 66.4 °F 79% 29.74 in - South 19.6 mph 26.5 mph N/A   Unknown
8:20 AM 73.4 °F 66.4 °F 79% - - South 17.3 mph 29.9 mph N/A   Unknown
8:40 AM 73.8 °F 66.2 °F 77% - - South 18.4 mph 27.6 mph N/A   Unknown
9:00 AM 29 °F 25 °F 79% 29.77 in 10 mi ENE 24.2 mph - -   Overcast
9:00 AM 74.1 °F 66.2 °F 76% 29.75 in - South 19.6 mph 32.2 mph N/A   Unknown
9:20 AM 73.9 °F 66.6 °F 78% - - South 18.4 mph 27.6 mph N/A   Unknown
9:40 AM 74.1 °F 66.2 °F 76% - - South 16.1 mph 25.3 mph N/A   Unknown
10:00 AM 73.9 °F 64.8 °F 73% 29.75 in - South 21.9 mph 36.8 mph N/A   Unknown
10:20 AM 72.3 °F 65.7 °F 79% - - South 18.4 mph 29.9 mph N/A   Unknown
10:40 AM 72.1 °F 65.8 °F 80% - - South 20.7 mph 34.5 mph N/A   Unknown
11:00 AM 73.4 °F 65.1 °F 75% 29.75 in - South 21.9 mph 33.4 mph N/A   Unknown
11:20 AM 73.2 °F 66.0 °F 78% - - South 16.1 mph 25.3 mph N/A   Unknown
11:40 AM 74.1 °F 65.1 °F 73% - - South 17.3 mph 27.6 mph N/A   Unknown
12:00 PM 75.0 °F 65.1 °F 71% 29.74 in - South 20.7 mph 26.5 mph N/A   Unknown
12:20 PM 75.2 °F 65.7 °F 72% - - South 19.6 mph 29.9 mph N/A   Unknown
12:40 PM 75.2 °F 66.4 °F 74% - - South 13.8 mph 21.9 mph N/A   Unknown
1:00 PM 75.6 °F 66.9 °F 74% 29.77 in - South 19.6 mph - N/A   Unknown
1:20 PM 75.0 °F 67.3 °F 77% - - South 12.7 mph 18.4 mph N/A   Unknown
1:40 PM 75.9 °F 67.5 °F 75% - - South 13.8 mph 21.9 mph N/A   Unknown
2:00 PM 75.7 °F 67.6 °F 76% 29.75 in - South 15.0 mph 20.7 mph N/A   Unknown
2:20 PM 76.3 °F 67.8 °F 75% - - South 12.7 mph 19.6 mph N/A   Unknown
2:40 PM 77.4 °F 67.8 °F 72% - - South 11.5 mph 18.4 mph N/A   Unknown
3:00 PM 30 °F 25 °F 74% 29.82 in 10 mi ENE 24.2 mph - -   Overcast
3:00 PM 76.3 °F 67.5 °F 74% 29.74 in - South 16.1 mph 23.0 mph N/A   Unknown
3:20 PM 75.7 °F 68.0 °F 77% - - South 13.8 mph 19.6 mph N/A   Unknown
3:40 PM 75.7 °F 67.6 °F 76% - - South 11.5 mph 23.0 mph N/A   Unknown
4:00 PM 75.9 °F 67.6 °F 75% 29.73 in - South 16.1 mph - N/A   Unknown
4:20 PM 76.8 °F 68.5 °F 75% - - South 11.5 mph 18.4 mph N/A   Unknown
4:40 PM 76.8 °F 68.5 °F 75% - - South 10.4 mph - N/A   Unknown
5:00 PM 76.1 °F 67.8 °F 75% 29.74 in - SSE 11.5 mph 17.3 mph N/A   Unknown
5:20 PM 75.6 °F 67.8 °F 77% - - SSE 10.4 mph 17.3 mph N/A   Unknown
5:40 PM 75.0 °F 66.9 °F 76% - - SSE 12.7 mph 19.6 mph N/A   Unknown
6:00 PM 74.3 °F 66.9 °F 78% 29.74 in - SSE 13.8 mph 19.6 mph N/A   Unknown
6:20 PM 73.9 °F 66.6 °F 78% - - SSE 10.4 mph 19.6 mph N/A   Unknown
6:40 PM 73.6 °F 66.4 °F 78% - - South 9.2 mph - N/A   Unknown
7:00 PM 73.6 °F 66.4 °F 78% 29.73 in - SSE 15.0 mph 23.0 mph N/A   Unknown
7:20 PM 72.9 °F 66.4 °F 80% - - SE 16.1 mph 24.2 mph N/A   Unknown
7:40 PM 72.5 °F 65.8 °F 80% - - SE 16.1 mph 21.9 mph N/A   Unknown
8:00 PM 72.3 °F 66.2 °F 81% 29.73 in - SSE 18.4 mph - N/A   Unknown
8:20 PM 72.7 °F 66.6 °F 81% - - SE 17.3 mph 25.3 mph N/A   Unknown
8:40 PM 72.7 °F 66.9 °F 82% - - SE 15.0 mph - N/A   Unknown
9:00 PM 71.6 °F 67.6 °F 87% 29.72 in - SE 17.3 mph - N/A   Unknown
9:20 PM 71.2 °F 67.5 °F 88% - - SSE 6.9 mph - N/A   Unknown
9:40 PM 71.4 °F 67.5 °F 87% - - SSE 6.9 mph - N/A   Unknown
10:00 PM 70.9 °F 67.3 °F 88% 29.69 in - ESE 10.4 mph - N/A   Unknown
10:20 PM 71.1 °F 67.3 °F 88% - - SE 6.9 mph - N/A   Unknown
10:40 PM 70.5 °F 66.4 °F 87% - - SE 8.1 mph - N/A   Unknown
11:00 PM 71.1 °F 66.4 °F 85% 29.65 in - SSE 18.4 mph 28.8 mph N/A   Unknown
11:20 PM 71.1 °F 66.4 °F 85% - - SSE 23.0 mph 35.7 mph N/A   Unknown
11:40 PM 70.9 °F 66.2 °F 85% - - South 19.6 mph 29.9 mph N/A   Unknown